www.pogodaiklimat.ru

Погода и климат >> Архив погоды >> Казахстан >> Нурлыкент


ПОГОДА в Нурлыкенте

  • Прогноз погоды в Нурлыкенте
  • Монитор погоды в Нурлыкенте

АРХИВ ПОГОДЫ в Нурлыкенте

Время (UTC), дата Ветер
(напр.,м/с)
 
Видим.   Явления Облачность Т
(С)
Тd
(С)
f
(%)
Тe
(С)
Тes
(С)
Комфортность P
(гПа)
Po
(гПа)
Тmin
(С)
Tmax
(С)
R
(мм)
R24
(мм)
S
(см)
15 16.09 штиль 0 н/о 8/4 1000 м
[Sc Ac trans]
+13.4 +7.3 67 +13 +13 1021.3 913.1 +22.0
18 16.09 штиль 0 н/о 8/8 1000 м
[Sc]
+10.0 +7.0 82 +9 +9 1023.4 913.8 +22.0
21 16.09 штиль 0 н/о 6/6 1000 м
[Sc]
+6.8 +5.2 90 +6 +6 1024.5 913.6
00 17.09 штиль 0 н/о ясно +3.8 +2.6 92 +3 +3 1026.6 914.2
03 17.09 штиль 0 50 км ясно +6.6 +3.0 78 +6 +9 1026.5 915.3
06 17.09 штиль 0 50 км ясно +20.6 +4.3 34 +21 +35 комфорт 1020.5 914.8 +2.7
09 17.09 В 2 50 км ясно +23.0 +5.0 31 +23 +33 комфорт 1018.4 913.8
12 17.09 штиль 0 50 км ясно +22.0 +5.1 33 +22 +24 комфорт 1017.9 913.0
15 17.09 штиль 0 н/о ясно +12.4 +7.0 70 +12 +12 1021.7 913.1 +23.6
18 17.09 штиль 0 н/о ясно +8.8 +2.9 66 +8 +8 1021.6 911.6 +23.6
21 17.09 штиль 0 н/о ясно +5.0 +2.8 86 +4 +4 1022.0 910.6
00 18.09 штиль 0 н/о ясно +3.6 +1.5 86 +3 +3 1022.1 910.1
03 18.09 штиль 0 50 км ясно +8.6 +2.7 66 +8 +11 1019.6 909.7
06 18.09 С 2 50 км ясно +23.2 +3.4 27 +23 +34 комфорт 1012.4 908.4 +3.0
09 18.09 СЗ 4 50 км ясно +29.2 +2.5 18 +27 +34 жарко 1009.1 907.4
12 18.09 СЗ 2 50 км ясно +27.4 +2.3 20 +26 +27 жарко 1009.5 907.2
15 18.09 штиль 0 н/о 4/0
[Ci fib]
+16.0 +7.1 55 +16 +16 1014.6 908.0 +30.0
18 18.09 штиль 0 н/о 8/6 1000 м
[Sc Ci fib]
+13.2 +5.0 58 +13 +13 1017.1 909.3 +30.0
21 18.09 штиль 0 н/о 3/3 1000 м
[Sc]
+8.8 +5.0 77 +8 +8 1019.2 909.6
00 19.09 штиль 0 н/о 8/8 1000 м
[Sc]
+8.4 +3.0 69 +8 +8 1019.9 910.0
03 19.09 штиль 0 50 км 4/4 1000 м
[Sc]
+13.2 +6.1 62 +13 +15 1018.7 910.7
06 19.09 З 3 50 км 3/0
[Ac cast]
+27.8 +2.5 20 +26 +33 жарко 1013.3 910.7 +7.0
09 19.09 З 5 50 км ясно +30.4 +4.6 20 +29 +34 жарко 1011.9 910.4
12 19.09 З 2 50 км ясно +29.0 +7.7 26 +28 +29 жарко 1011.9 909.9
15 19.09 штиль 0 н/о ясно +16.8 +9.0 60 +17 +17 1017.8 911.3 +31.0
18 19.09 штиль 0 н/о ясно +16.8 +9.0 60 +17 +17 1017.8 911.3 +31.0
21 19.09 штиль 0 н/о ясно +9.4 +5.6 77 +9 +9 1021.2 911.6
00 20.09 штиль 0 н/о ясно +7.8 +3.2 73 +7 +7 1022.3 911.9
03 20.09 штиль 0 50 км ясно +12.2 +5.3 63 +12 +15 1020.4 911.9
06 20.09 ЮВ 4 50 км ясно +24.2 +5.3 29 +24 +31 комфорт 1015.5 911.5 +7.0
09 20.09 В 2 50 км ясно +27.0 +7.7 29 +27 +36 жарко 1013.3 910.5
12 20.09 В 2 50 км ясно +25.8 +6.7 30 +26 +27 жарко 1013.3 910.2
15 20.09 штиль 0 н/о ясно +16.0 +9.4 65 +16 +16 1017.4 910.6 +27.5
18 20.09 штиль 0 н/о ясно +11.2 +6.8 74 +11 +11 1018.3 909.6 +27.5
21 20.09 штиль 0 н/о ясно +8.8 +4.5 74 +8 +8 1018.2 908.6
00 21.09 штиль 0 н/о ясно +7.0 +3.4 78 +6 +6 1018.4 908.2
03 21.09 штиль 0 50 км ясно +10.6 +4.6 66 +10 +13 1016.8 908.1
06 21.09 штиль 0 50 км ясно +26.2 +5.6 27 +26 +39 жарко 1009.9 907.2 +6.8
09 21.09 штиль 0 50 км ясно +30.4 +7.3 24 +29 +42 жарко 1006.9 905.9
12 21.09 В 1 50 км ясно +28.7 +9.0 29 +28 +30 жарко 1006.8 905.3
15 21.09 штиль 0 н/о ясно +17.2 +11.1 67 +17 +17 1010.9 905.3 +30.7
18 21.09 штиль 0 н/о ясно +12.4 +6.8 69 +12 +12 1012.2 904.6 +30.7
21 21.09 штиль 0 н/о ясно +9.4 +4.6 72 +9 +9 1013.3 904.5
00 22.09 штиль 0 н/о ясно +7.4 +2.9 73 +7 +7 1013.9 904.3
03 22.09 штиль 0 50 км ясно +10.4 +3.0 60 +10 +13 1013.2 904.7
06 22.09 штиль 0 50 км ясно +29.6 +10.0 30 +30 +43 жарко 1005.4 904.4 +6.5
09 22.09 З 3 50 км ясно +32.5 +2.7 15 +30 +37 жарко 1003.5 903.4
15 22.09 СЗ 2 н/о ясно +23.6 +2.5 25 +23 +23 комфорт 1008.1 904.6 +33.5
18 22.09 штиль 0 н/о ясно +14.2 +8.6 69 +14 +14 1011.5 904.7 +33.5
21 22.09 З 5 н/о 3/0
[Ci fib]
+15.5 +6.7 56 +14 +14 1017.4 910.4
00 23.09 З 2 н/о 8/8 1000 м
[Sc]
+12.4 +8.6 78 +12 +12 1023.0 914.4
03 23.09 штиль 0 50 км {ливн. осадки} 8/8 1000 м
[Sc]
+10.0 +8.1 88 +9 +10 1025.4 915.6
06 23.09 В 2 50 км 9/6 1000 м
[Sc Ci sp]
+12.6 +8.0 74 +12 +15 1025.0 916.2 +9.6 0.6

 

Местоположение метеостанции Нурлыкент (Жамбылская область, Казахстан): широта 42.70 долгота 70.82 высота над уровнем моря 954 м.

В архиве по умолчанию представлена погода в Нурлыкенте за последнюю неделю. Архивные данные за месяц целиком и за предыдущие месяцы, начиная с января 2011 года, Вы можете получить, выбрав интересующий диапазон дат из раскрывающегося списка и нажав кнопку "Ввод!".


*Определитесь, кто Вы:
робот инопланетянин человек

Внимание! Время в таблицах - всемирное. Для получения местного времени необходимо прибавить поправку, которая равна 5 ч.

Смотрите также архив погоды в соседних городах и на ближайших метеорологических станциях:

Погода в Таразе (Жамбылская область, Казахстан) (49 км)
Погода в Ауле Турара Рыскулова (Южно-Казахстанская область, Казахстан) (49 км)
Погода в Шуылдаке (Южно-Казахстанская область, Казахстан) (55 км)
Погода в Ойгаинге (Ташкентская область, Узбекистан) (59 км)
Погода в Каратау (Жамбылская область, Казахстан) (60 км)
Погода в Кызыл-Адыре (Таласская область, Киргизия) (66 км)
Погода в Тасарыке (Южно-Казахстанская область, Казахстан) (76 км)
Погода в Акжаре (Жамбылская область, Казахстан) (85 км)
Погода в Пскеме (Ташкентская область, Узбекистан) (96 км)
Погода в Чаткале (Джалал-Абадская область, Киргизия) (99 км)

Пояснения к столбцам:

Ветер - указаны скорость ветра в м/с - средняя за 10 мин, порывы в срок и между сроками (в фигурных скобках) и направление, откуда дует ветер: С - северный, СВ - северо-восточный, В - восточный, ЮВ - юго-восточный, Ю - южный, ЮЗ - юго-западный, З - западный, СЗ - северо-западный.
Видимость - горизонтальная дальность видимости в метрах или километрах. При видимости от 1 до 10 км при отсутствии осадков обычно наблюдается дымка, при ухудшении видимости до 1 км и менее - туман. В сухую погоду видимость может ухудшаться дымом, пылью или мглою.
Явления - указаны атмосферные явления, наблюдавшиеся в срок или в последний час перед сроком; фигурными скобками обозначены явления, наблюдавшиеся между сроками (за 1-3 часа до срока); квадратными скобками обозначены град или гололедные отложения с указанием их диаметра в мм.
Облачность - указаны через наклонную черту общая и нижняя облачность в баллах и высота нижней границы облаков в метрах; квадратными скобками обозначены формы облаков: Ci - перистые, Cs - перисто-слоистые, Cc - перисто-кучевые, Ac - высококучевые, As - высокослоистые, Sc - слоисто-кучевые, Ns - слоисто-дождевые, Cu - кучевые, Cb - кучево-дождевые. Подробнее классификацию облаков см. в Атласе облаков (PDF).
T - Температура воздуха - температура, измеренная на высоте 2 м над землей.
Td - Температура точки росы - температура, при понижении до которой содержащийся в воздухе водяной пар достигнет насыщения.
f - Относительная влажность воздуха - влажноcть воздуха, измеренная на высоте 2 м над землей.
Te - Эффективная температура - температура, которую ощущает одетый по сезону человек в тени. Характеристика душности погоды. При расчете учитывается влияние влажности воздуха и скорости ветра на теплоощущения человека.
Tes - Эффективная температура на солнце - температура, которую ощущает человек, с поправкой на солнечный нагрев. Характеристика знойности погоды. Зависит от высоты солнца над горизонтом, облачности и скорости ветра. Ночью, в пасмурную погоду, а также при ветре 12 м/с и более поправка равна нулю.
P - Атмосферное давление - приведенное к уровню моря атмосферное давление.
Po - Атмосферное давление - измеренное на уровне метеостанции атмосферное давление.
Tmin - Минимальная температура - минимум температуры воздуха на высоте 2 м над землей.
Tmax - Максимальная температура - максимум температуры воздуха на высоте 2 м над землей.
R - Количество осадков - Количество выпавших осадков за период времени, мм. При наведении курсора мыши на число - период времени, за который выпало указанное количество осадков.
R24 - Количество осадков - Количество выпавших осадков за 24 часа, мм.
S - Снежный покров - Высота снежного покрова, см. При наведении курсора мыши на число - состояние снежного покрова и степень покрытия местности в баллах.